Simultaneous Nadir Overpasses (SNOs) Predictions

Prediction of SNOs between LANDSAT-8 and NOAA-19 Satellite Orbit:

Table of predicted SNOs for the next 14.0 days since TLE Epoch: 9/15/2018
Index Date (LANDSAT-8) Time (LANDSAT-8) Lat,Lon (LANDSAT-8) SZA (LANDSAT-8 ) Date (NOAA-19) Time (NOAA-19) Lat,Lon (NOAA-19) SZA (NOAA-19 ) Distance(km) Time Diff (sec)
1 09/16/2018 18:15:15 78.00, -78.27 76.01 09/16/2018 18:14:11 77.97, -78.30 75.97 3.33 64
2 09/16/2018 19:04:44 -77.92, 89.01 104.07 09/16/2018 19:05:11 -77.93, 89.19 104.05 4.25 27
3 09/18/2018 23:49:01 -77.97, 18.14 103.16 09/18/2018 23:47:47 -78.07, 17.79 103.10 14.26 74
4 09/19/2018 00:38:27 77.96,-174.26 76.85 09/19/2018 00:38:43 77.95,-174.24 76.85 1.18 16
5 09/21/2018 06:12:12 -77.97, -77.63 102.26 09/21/2018 06:12:17 -77.95, -77.58 102.27 2.15 5
6 09/23/2018 11:45:55 78.00, 19.06 78.66 09/23/2018 11:45:48 77.99, 18.93 78.64 3.31 7
7 09/25/2018 17:19:40 -78.01, 115.69 100.45 09/25/2018 17:19:23 -77.99, 115.59 100.48 3.37 17
8 09/25/2018 18:09:07 77.95, -76.94 79.49 09/25/2018 18:10:20 77.97, -77.02 79.52 2.77 73
9 09/27/2018 22:53:24 77.99,-147.85 80.40 09/27/2018 22:52:52 77.99,-147.71 80.41 3.29 32




NCC Satellite Simultaneous Nadir Overpasses (SNOs) Prediction Service
